Location: Sternwarte Hubelmatt
(47.0367°N, 8.3053°E)
Time: 02:44:39
(UTC+02:00)

UWE-3 - Pass Details

Date: 01 May 2024
Orbit: 569 x 652 km, 97.8° (Epoch: 23 May)

Event Time Altitude Azimuth Distance (km) Brightness Sun altitude
Rises 03:33:48 0° 19° (NNE) 2,896 ? -21.3°
Reaches altitude 10° 03:36:05 10° 27° (NNE) 1,999 ? -21.1°
Maximum altitude 03:40:13 41° 98° (E) 920 ? -20.7°
Enters shadow 03:42:16 25° 152° (SSE) 1,281 ? -20.5°
